Wind_Speed
23 23 23 22 22 21 20 20 20 20 20 21 21 20 20 20 20 20 21 22 21 21 21 21 21 20 20 19 19 20 20 19 20 20 20 20 19 19 19 19 19 18 18
24 24 23 24 23 22 21 21 21 22 22 21 22 22 22 22 22 22 22 22 22 22 22 23 22 22 21 21 21 21 22 21 21 21 22 22 22 22 22 21 21 21 21
24 25 25 25 25 24 23 23 23 23 23 23 23 23 23 23 23 22 22 22 23 23 23 23 22 22 23 23 22 21 21 22 22 22 22 23 24 24 23 23 23 23 23
25 25 26 26 26 25 25 24 24 24 24 24 24 25 24 24 24 24 25 24 24 24 24 24 23 23 24 24 23 22 22 22 23 23 23 24 24 25 25 25 25 26 25
25 26 27 27 27 26 26 26 25 26 25 25 25 26 26 26 26 26 26 26 26 25 25 26 25 24 25 25 24 23 23 23 24 25 26 26 26 27 27 27 27 27 27
26 27 27 27 27 27 26 26 26 26 27 27 27 27 27 27 27 27 27 27 26 26 26 27 27 26 26 25 25 24 25 25 25 26 27 28 28 28 28 28 28 28 28
26 27 28 27 28 28 27 27 27 27 28 27 27 27 27 27 27 27 27 26 26 26 27 27 28 27 26 25 26 26 25 26 26 26 27 28 29 29 29 28 29 29 29
26 26 27 28 27 28 27 27 27 28 28 27 27 27 27 27 27 27 27 26 26 26 26 26 26 26 26 26 26 28 28 28 28 28 28 29 29 29 30 30 30 30 31
27 27 27 27 27 27 28 28 28 28 28 28 28 28 27 27 27 27 27 27 27 27 27 27 27 27 27 28 28 28 29 30 30 29 29 31 31 31 31 31 32 32 33
27 27 27 28 28 28 29 29 30 29 29 29 29 29 29 28 28 28 28 28 28 28 27 28 28 28 28 29 29 30 30 30 31 31 32 32 32 31 31 31 32 32 32
27 28 28 29 29 30 30 30 30 30 30 29 29 28 28 28 28 28 28 28 28 28 28 28 29 29 29 30 29 30 31 31 31 31 31 31 31 31 30 31 31 31 31
28 29 29 30 30 30 30 30 30 30 30 29 28 28 28 28 28 28 28 27 27 27 28 29 29 29 30 29 29 29 29 30 30 31 31 30 30 30 31 31 31 32 32
29 29 29 29 29 29 29 29 29 29 29 29 29 29 29 28 29 28 28 28 28 28 28 28 28 28 28 29 29 29 29 29 30 30 32 31 30 30 31 32 32 33 34
29 29 28 28 29 29 29 29 28 28 29 29 29 29 29 29 29 28 28 29 29 28 28 28 27 27 27 27 28 28 28 29 29 30 30 30 30 30 31 31 33 33 34
29 28 28 28 28 29 29 30 29 29 29 29 29 29 29 29 29 28 28 29 28 29 28 28 27 26 26 26 26 27 27 27 29 29 30 31 31 31 32 32 33 34 34
28 28 29 29 29 29 29 30 29 29 29 28 28 29 29 29 29 28 28 28 28 28 28 27 26 25 25 26 26 26 26 27 28 29 30 30 30 31 31 31 32 32 32
29 29 28 28 28 28 28 28 28 28 27 27 27 27 27 27 27 26 26 26 26 26 26 26 26 25 24 25 26 27 27 27 27 28 28 29 29 29 28 29 30 29 29
26 26 26 25 26 26 25 25 24 24 24 24 24 24 24 24 24 24 24 23 24 24 23 23 23 23 23 23 24 24 25 25 26 26 26 26 26 27 27 27 26 26 27
24 23 23 23 23 23 23 22 22 22 22 22 22 22 22 23 23 22 21 21 21 21 21 21 21 21 21 21 22 23 23 23 23 23 23 22 23 24 25 25 25 26 26
20 20 20 20 20 20 20 19 19 19 19 19 20 20 20 20 20 20 20 19 19 19 20 20 21 20 19 19 20 22 21 21 21 21 21 21 22 22 23 24 24 24 24
17 16 16 17 16 17 17 17 17 17 16 16 16 16 17 17 17 18 18 18 18 18 18 19 19 19 18 18 18 19 19 19 19 19 19 20 19 19 19 20 20 21 21
14 14 13 13 13 14 14 14 15 14 14 14 14 13 13 13 14 14 15 16 16 16 16 16 16 15 15 16 16 16 15 15 16 16 16 16 16 16 17 17 17 18 18
12 12 11 10 11 10 10 11 11 12 12 11 10 10 10 10 11 12 12 13 13 13 13 13 12 12 12 13 13 13 13 13 13 13 13 13 13 14 15 15 16 16 17
9 9 8 8 7 8 8 8 8 8 8 8 8 8 7 8 8 9 9 9 8 8 9 9 9 9 9 9 10 10 9 9 9 10 10 11 11 12 13 14 14 15 16
7 6 6 5 5 4 4 4 4 4 4 5 5 5 5 5 6 6 7 7 6 6 6 6 6 6 6 6 6 6 6 6 7 8 8 8 9 10 11 11 12 13 14
4 3 3 2 2 2 1 1 2 2 2 3 3 3 4 4 5 5 5 5 5 4 4 4 4 3 3 3 3 3 3 3 4 4 5 6 8 9 10 11 12 12 14
Wind_Direction
259 258 259 260 261 262 264 266 267 270 270 271 271 273 274 272 272 272 271 269 267 268 268 266 265 265 262 260 255 255 254 249 246 243 243 243 244 243 244 246 247 249 250
259 259 260 259 260 262 264 267 269 270 271 271 270 271 270 269 270 270 271 271 268 266 267 266 264 264 263 261 259 257 255 252 248 246 244 245 246 245 247 249 249 250 252
260 260 259 260 262 264 265 267 269 270 270 270 270 270 270 269 269 268 270 271 269 267 267 265 262 263 264 262 260 258 255 252 249 247 247 247 248 247 247 249 250 252 254
260 261 261 261 262 262 265 267 269 270 271 270 271 270 269 269 269 268 268 270 269 267 265 264 263 263 263 262 262 260 258 253 251 249 249 249 250 249 248 249 251 252 255
261 262 262 262 262 263 265 267 269 271 271 272 272 272 270 270 269 269 268 268 269 267 265 262 261 261 262 261 262 260 258 257 256 254 252 251 251 251 251 251 252 253 255
261 262 262 263 264 264 266 267 268 270 271 272 272 272 272 271 270 268 267 267 269 267 264 261 260 261 262 261 260 259 259 257 257 257 255 252 251 251 252 252 252 254 255
264 266 264 264 265 265 266 267 268 269 271 271 272 272 272 272 271 269 267 267 267 267 264 261 261 262 260 258 258 258 259 258 257 259 257 254 254 255 254 256 255 256 257
269 270 268 267 267 265 265 268 269 270 270 269 270 271 270 271 271 269 268 266 266 266 265 261 261 262 261 259 259 259 260 260 258 259 257 257 257 257 257 257 259 258 258
270 269 268 269 270 269 269 270 269 270 270 269 269 269 269 271 271 270 268 266 265 265 264 260 260 261 259 259 260 260 261 261 259 259 258 256 258 259 259 259 259 259 259
270 269 269 270 271 271 272 271 270 269 269 269 268 268 268 269 270 269 268 267 266 265 264 261 259 259 261 260 262 263 261 262 261 261 261 259 259 258 259 259 258 258 259
271 271 272 273 272 272 272 272 270 268 268 268 268 267 267 267 267 268 268 266 266 264 262 261 259 259 262 262 262 263 262 261 262 261 262 260 258 259 260 259 259 260 261
272 272 272 273 273 273 272 271 269 267 267 266 266 265 265 265 264 266 266 265 265 264 263 263 262 261 261 261 261 262 263 261 260 261 260 259 261 261 260 262 264 263 266
273 273 273 273 273 272 272 271 269 268 267 266 265 264 264 264 264 264 264 264 264 264 264 264 264 263 263 262 261 263 263 263 264 264 262 263 263 263 264 267 269 268 269
274 273 273 273 272 271 272 272 270 269 268 267 265 264 262 262 262 262 263 262 262 263 263 263 263 263 264 263 261 261 261 263 264 265 265 265 265 265 266 268 269 270 271
274 274 274 273 273 272 271 272 272 270 269 268 266 263 261 260 260 261 261 261 261 262 262 262 262 261 263 262 263 263 263 264 264 264 266 266 266 267 268 269 271 272 274
274 274 274 273 273 272 272 272 271 270 270 268 265 263 261 260 260 260 260 260 260 261 262 262 261 263 264 264 265 265 265 265 266 266 269 270 269 269 271 272 273 274 275
275 275 274 273 273 273 273 272 271 270 269 267 264 262 261 261 260 260 259 259 259 260 261 260 261 263 264 264 264 265 266 268 270 271 273 273 271 272 274 276 275 275 276
279 277 276 275 274 274 272 272 272 270 268 266 264 262 261 260 258 257 257 257 257 258 260 261 261 262 264 266 266 266 267 267 271 273 275 275 275 276 276 278 279 280 281
280 279 276 277 277 275 273 274 273 271 269 267 264 261 259 257 257 255 253 254 254 256 258 259 259 261 263 266 267 269 270 270 272 274 274 276 278 277 277 279 283 285 286
281 281 279 279 276 274 274 273 271 271 268 266 264 260 258 254 253 251 250 251 253 255 257 258 260 262 265 267 270 271 272 272 273 274 277 278 279 279 279 281 284 286 288
284 281 281 279 276 273 271 268 267 268 266 266 263 259 255 251 248 246 246 249 252 254 256 259 261 264 265 268 271 273 273 273 274 276 279 280 280 281 283 284 286 287 290
282 281 283 281 277 274 271 267 267 266 264 264 262 258 252 246 246 245 244 247 251 253 255 259 262 262 263 267 272 274 271 273 276 277 280 281 283 283 286 290 292 294 295
285 282 283 282 277 269 267 268 266 262 259 260 257 254 252 248 244 243 244 245 248 251 253 254 257 259 264 266 269 270 272 273 275 278 280 284 286 288 291 294 297 299 299
293 291 288 286 276 271 268 267 262 256 255 254 250 246 248 245 241 239 238 236 238 244 248 250 254 258 265 266 267 272 273 274 278 283 285 287 290 295 300 300 301 303 305
295 296 297 294 289 279 266 261 251 243 238 237 226 220 221 223 220 220 217 221 227 233 237 242 247 255 259 260 264 272 276 283 289 292 294 296 300 303 306 308 309 310 311
303 310 318 308 286 265 253 243 222 210 200 204 196 182 184 193 189 192 196 199 202 207 208 218 227 232 237 249 264 278 286 298 306 310 308 307 309 311 314 315 316 315 314
Height
5879 5879 5879 5880 5880 5881 5881 5881 5881 5881 5882 5882 5881 5881 5881 5881 5881 5880 5880 5880 5881 5881 5881 5881 5881 5881 5881 5881 5882 5883 5883 5883 5884 5885 5886 5887 5888 5889 5890 5891 5891 5892 5892
5874 5874 5875 5875 5876 5876 5876 5876 5877 5877 5877 5877 5877 5876 5876 5876 5876 5876 5876 5876 5876 5876 5876 5876 5876 5877 5877 5877 5877 5877 5878 5878 5879 5880 5882 5883 5884 5885 5885 5886 5887 5888 5888
5869 5870 5870 5870 5871 5871 5871 5871 5871 5871 5871 5871 5871 5871 5871 5871 5871 5871 5871 5870 5870 5871 5871 5871 5871 5872 5872 5872 5872 5873 5873 5874 5874 5875 5876 5877 5878 5879 5880 5881 5882 5883 5883
5864 5864 5865 5865 5865 5865 5865 5866 5866 5866 5866 5866 5866 5866 5866 5866 5865 5865 5865 5865 5865 5865 5866 5866 5866 5867 5867 5867 5867 5867 5868 5868 5869 5870 5871 5872 5873 5874 5875 5876 5877 5877 5878
5859 5859 5859 5859 5860 5860 5860 5860 5861 5860 5860 5860 5860 5860 5860 5860 5860 5860 5860 5860 5860 5860 5860 5861 5861 5861 5861 5861 5861 5862 5862 5863 5864 5864 5865 5866 5867 5868 5869 5870 5870 5871 5872
5853 5853 5853 5854 5854 5854 5854 5854 5854 5855 5854 5854 5854 5854 5854 5854 5854 5854 5854 5854 5854 5854 5854 5855 5855 5855 5855 5856 5856 5856 5857 5857 5858 5858 5859 5860 5861 5861 5862 5863 5864 5864 5865
5848 5848 5848 5848 5848 5848 5848 5848 5848 5848 5848 5848 5848 5848 5848 5848 5848 5847 5848 5848 5848 5848 5848 5848 5849 5849 5849 5849 5850 5851 5851 5852 5852 5853 5853 5854 5854 5855 5855 5856 5857 5857 5858
5842 5842 5842 5842 5842 5842 5842 5842 5842 5842 5842 5842 5842 5842 5842 5842 5841 5841 5841 5841 5842 5842 5842 5842 5843 5843 5843 5844 5844 5845 5845 5846 5846 5846 5847 5847 5848 5848 5849 5849 5850 5850 5851
5836 5835 5835 5835 5835 5835 5835 5835 5835 5835 5835 5835 5835 5835 5835 5835 5835 5835 5835 5835 5835 5836 5836 5836 5837 5837 5837 5837 5838 5838 5839 5839 5840 5840 5839 5840 5841 5841 5841 5842 5843 5843 5843
5829 5828 5828 5828 5828 5828 5828 5828 5828 5828 5828 5828 5828 5828 5829 5828 5828 5828 5828 5829 5829 5829 5829 5830 5830 5830 5831 5831 5831 5832 5832 5832 5833 5833 5833 5833 5834 5834 5834 5835 5835 5835 5835
5822 5822 5821 5821 5821 5821 5820 5820 5820 5821 5821 5821 5821 5821 5821 5821 5821 5821 5822 5822 5822 5822 5823 5823 5823 5824 5824 5824 5825 5825 5825 5825 5825 5826 5826 5827 5827 5827 5827 5828 5828 5828 5828
5814 5814 5814 5814 5813 5813 5813 5812 5812 5813 5813 5813 5813 5814 5814 5814 5814 5814 5815 5815 5815 5816 5816 5816 5816 5817 5817 5817 5818 5818 5818 5819 5819 5819 5820 5819 5819 5820 5820 5821 5821 5820 5820
5807 5807 5806 5806 5805 5805 5805 5804 5805 5805 5805 5805 5806 5806 5806 5807 5807 5808 5808 5808 5808 5809 5809 5809 5810 5810 5810 5811 5811 5812 5812 5812 5813 5813 5813 5813 5812 5813 5813 5813 5813 5813 5812
5799 5799 5798 5798 5798 5798 5797 5797 5797 5797 5797 5797 5798 5798 5799 5799 5800 5800 5801 5801 5801 5802 5802 5803 5803 5803 5804 5804 5804 5805 5805 5806 5806 5806 5806 5806 5806 5806 5806 5806 5806 5805 5804
5791 5790 5790 5790 5789 5789 5789 5789 5789 5789 5789 5789 5789 5790 5791 5791 5792 5793 5793 5794 5795 5795 5796 5796 5796 5797 5797 5798 5798 5799 5799 5799 5799 5799 5799 5799 5799 5799 5799 5798 5798 5797 5797
5783 5782 5782 5782 5781 5781 5781 5781 5781 5781 5781 5781 5781 5782 5783 5783 5784 5785 5786 5786 5787 5789 5789 5790 5790 5791 5791 5791 5792 5792 5793 5793 5793 5792 5792 5791 5791 5791 5791 5790 5790 5789 5789
5775 5774 5774 5774 5773 5773 5773 5773 5773 5773 5773 5773 5773 5774 5775 5776 5776 5777 5778 5779 5780 5782 5782 5783 5784 5784 5785 5785 5785 5786 5786 5786 5786 5786 5785 5785 5785 5784 5784 5783 5783 5782 5781
5767 5767 5766 5766 5766 5766 5766 5766 5766 5766 5766 5766 5766 5767 5768 5768 5769 5770 5772 5773 5774 5775 5777 5777 5778 5779 5779 5779 5780 5780 5780 5780 5780 5779 5779 5778 5778 5778 5777 5777 5776 5776 5775
5760 5760 5759 5759 5759 5759 5759 5759 5759 5759 5759 5760 5760 5760 5761 5762 5762 5764 5766 5767 5768 5770 5771 5772 5772 5773 5774 5774 5774 5774 5774 5774 5774 5773 5773 5773 5772 5772 5772 5771 5770 5769 5769
5755 5754 5754 5753 5753 5753 5753 5753 5753 5753 5753 5754 5754 5754 5755 5756 5757 5758 5760 5761 5763 5764 5765 5766 5767 5768 5768 5768 5768 5769 5768 5769 5769 5768 5767 5767 5767 5766 5766 5766 5765 5764 5763
5750 5749 5749 5748 5748 5748 5748 5748 5748 5748 5749 5749 5748 5749 5749 5750 5752 5753 5755 5757 5758 5759 5760 5761 5762 5762 5763 5763 5763 5763 5763 5763 5763 5763 5762 5762 5762 5761 5761 5760 5759 5759 5758
5746 5745 5745 5744 5743 5743 5743 5744 5744 5744 5744 5744 5744 5745 5745 5746 5747 5749 5750 5752 5753 5754 5756 5757 5757 5758 5758 5759 5759 5759 5759 5759 5759 5759 5758 5758 5757 5757 5756 5755 5755 5754 5753
5743 5742 5742 5741 5740 5740 5740 5740 5740 5740 5740 5741 5741 5741 5742 5743 5744 5745 5746 5748 5749 5750 5752 5753 5753 5753 5754 5754 5755 5754 5755 5755 5755 5754 5754 5754 5753 5752 5752 5751 5750 5749 5748
5740 5740 5739 5738 5738 5737 5737 5737 5737 5737 5738 5738 5738 5739 5740 5740 5741 5742 5744 5745 5746 5747 5748 5749 5750 5750 5751 5751 5751 5752 5751 5751 5751 5751 5750 5750 5750 5749 5748 5747 5746 5745 5744
5738 5738 5737 5737 5736 5735 5735 5736 5735 5735 5735 5736 5736 5737 5738 5738 5739 5740 5741 5742 5743 5744 5745 5746 5747 5747 5748 5748 5749 5749 5749 5749 5749 5748 5748 5747 5747 5746 5745 5744 5743 5742 5740
5737 5737 5736 5736 5735 5735 5734 5734 5734 5735 5735 5735 5735 5736 5736 5737 5738 5739 5740 5741 5742 5743 5743 5744 5745 5745 5746 5746 5747 5747 5747 5747 5747 5746 5745 5745 5744 5744 5743 5742 5740 5739 5737